Location: Newark
(41.8083°N, 72.2500°W)
Time: 10:42:38
(UTC+00:00)

Altair - Pass Details

Date: 03 December 2021
Orbit: 1501 x 1683 km, 47.2° (Epoch: 27 January)

Event Time Altitude Azimuth Distance (km) Brightness Sun altitude
Rises 00:09:30 0° 282° (WNW) 4,702 11.1 -31.2°
Reaches altitude 10° 00:12:38 10° 286° (WNW) 3,699 10.3 -31.7°
Maximum altitude 00:21:52 65° 8° (N) 1,636 7.4 -33.5°
Enters shadow 00:22:28 63° 27° (NNE) 1,649 7.4 -33.6°
